SB KEPS @ AMSAT $ORB13354.O Orbital Elements 13354.OSCAR
HR AMSAT ORBITAL ELEMENTS FOR OSCAR SATELLITES FROM WA5QGD FORT WORTH,TX December 20, 2013 BID: ORB13354.O TO ALL RADIO AMATEURS BT
Satellite: AO-07 Catalog number: 07530 Epoch time: 13354.21515174 Element set: 851 Inclination: 101.4523 deg RA of node: 337.0948 deg Eccentricity: 0.0011636 Arg of perigee: 285.1708 deg Mean anomaly: 143.3189 deg Mean motion: 12.53600565 rev/day Decay rate: -2.1e-07 rev/day^2 Epoch rev: 78909 Checksum: 286
Satellite: FO-29 Catalog number: 24278 Epoch time: 13354.50447887 Element set: 268 Inclination: 098.5300 deg RA of node: 027.9105 deg Eccentricity: 0.0351037 Arg of perigee: 041.3522 deg Mean anomaly: 091.5242 deg Mean motion: 13.53012067 rev/day Decay rate: -3.7e-07 rev/day^2 Epoch rev: 85650 Checksum: 291
Satellite: SO-33 Catalog number: 25509 Epoch time: 13354.70786536 Element set: 652 Inclination: 031.4325 deg RA of node: 091.4340 deg Eccentricity: 0.0350442 Arg of perigee: 351.0253 deg Mean anomaly: 166.8250 deg Mean motion: 14.29269116 rev/day Decay rate: 4.10e-06 rev/day^2 Epoch rev: 79159 Checksum: 289
Satellite: RS-22 Catalog number: 27939 Epoch time: 13354.76337143 Element set: 53 Inclination: 097.7959 deg RA of node: 172.9314 deg Eccentricity: 0.0012877 Arg of perigee: 319.0808 deg Mean anomaly: 040.9430 deg Mean motion: 14.64757169 rev/day Decay rate: 1.276e-05 rev/day^2 Epoch rev: 54660 Checksum: 335
Satellite: VO-52 Catalog number: 28650 Epoch time: 13354.13648694 Element set: 610 Inclination: 097.5621 deg RA of node: 003.1806 deg Eccentricity: 0.0026262 Arg of perigee: 031.6390 deg Mean anomaly: 040.8961 deg Mean motion: 14.84508553 rev/day Decay rate: 2.381e-05 rev/day^2 Epoch rev: 46666 Checksum: 302
Satellite: HO-68 Catalog number: 36122 Epoch time: 13354.72271463 Element set: 163 Inclination: 100.2805 deg RA of node: 046.8393 deg Eccentricity: 0.0007454 Arg of perigee: 288.5470 deg Mean anomaly: 071.4833 deg Mean motion: 13.16309916 rev/day Decay rate: -4.4e-07 rev/day^2 Epoch rev: 19295 Checksum: 300
Satellite: AO-73 Catalog number: 39445 Epoch time: 13354.33655111 Element set: 15 Inclination: 097.7968 deg RA of node: 066.0276 deg Eccentricity: 0.0064778 Arg of perigee: 103.0080 deg Mean anomaly: 257.8350 deg Mean motion: 14.77266533 rev/day Decay rate: 3.728e-05 rev/day^2 Epoch rev: 262 Checksum: 312
/EX SB KEPS @ AMSAT $ORB13354.D Orbital Elements 13354.MICROS
HR AMSAT ORBITAL ELEMENTS FOR THE MICROSATS FROM WA5QGD FORT WORTH,TX December 20, 2013 BID: ORB13354.D TO ALL RADIO AMATEURS BT
Satellite: UO-11 Catalog number: 14781 Epoch time: 13354.17356543 Element set: 367 Inclination: 097.8788 deg RA of node: 052.5943 deg Eccentricity: 0.0009587 Arg of perigee: 051.8751 deg Mean anomaly: 308.3324 deg Mean motion: 14.81192911 rev/day Decay rate: 9.30e-06 rev/day^2 Epoch rev: 60146 Checksum: 319
Satellite: AO-16 Catalog number: 20439 Epoch time: 13354.05627551 Element set: 910 Inclination: 098.4914 deg RA of node: 289.9335 deg Eccentricity: 0.0010172 Arg of perigee: 334.3577 deg Mean anomaly: 084.9743 deg Mean motion: 14.32253681 rev/day Decay rate: 2.36e-06 rev/day^2 Epoch rev: 24884 Checksum: 316
Satellite: LO-19 Catalog number: 20442 Epoch time: 13354.54510736 Element set: 849 Inclination: 098.4615 deg RA of node: 291.6126 deg Eccentricity: 0.0010929 Arg of perigee: 321.2582 deg Mean anomaly: 038.7818 deg Mean motion: 14.32460928 rev/day Decay rate: 2.30e-06 rev/day^2 Epoch rev: 24910 Checksum: 299
Satellite: AO-27 Catalog number: 22825 Epoch time: 13354.46183703 Element set: 553 Inclination: 098.6418 deg RA of node: 296.7128 deg Eccentricity: 0.0009575 Arg of perigee: 102.1500 deg Mean anomaly: 030.8500 deg Mean motion: 14.29631187 rev/day Decay rate: 1.86e-06 rev/day^2 Epoch rev: 5524 Checksum: 294
Satellite: IO-26 Catalog number: 22826 Epoch time: 13354.82347591 Element set: 311 Inclination: 098.6360 deg RA of node: 297.3218 deg Eccentricity: 0.0010103 Arg of perigee: 094.8310 deg Mean anomaly: 292.6389 deg Mean motion: 14.29922307 rev/day Decay rate: 2.32e-06 rev/day^2 Epoch rev: 5543 Checksum: 294
Satellite: GO-32 Catalog number: 25397 Epoch time: 13354.49032344 Element set: 233 Inclination: 098.4437 deg RA of node: 314.4011 deg Eccentricity: 0.0002435 Arg of perigee: 108.2177 deg Mean anomaly: 030.2534 deg Mean motion: 14.23386782 rev/day Decay rate: 1.19e-06 rev/day^2 Epoch rev: 80244 Checksum: 273
Satellite: NO-44 Catalog number: 26931 Epoch time: 13354.49423362 Element set: 493 Inclination: 067.0514 deg RA of node: 139.2086 deg Eccentricity: 0.0006193 Arg of perigee: 263.6703 deg Mean anomaly: 096.3693 deg Mean motion: 14.30008547 rev/day Decay rate: 2.78e-06 rev/day^2 Epoch rev: 63805 Checksum: 309
Satellite: SO-50 Catalog number: 27607 Epoch time: 13354.19263433 Element set: 251 Inclination: 064.5575 deg RA of node: 057.7655 deg Eccentricity: 0.0032111 Arg of perigee: 083.5595 deg Mean anomaly: 311.4375 deg Mean motion: 14.73283502 rev/day Decay rate: 8.86e-06 rev/day^2 Epoch rev: 59111 Checksum: 300
Satellite: CO-55 Catalog number: 27844 Epoch time: 13354.49808028 Element set: 812 Inclination: 098.7005 deg RA of node: 000.8592 deg Eccentricity: 0.0010626 Arg of perigee: 074.8123 deg Mean anomaly: 087.3523 deg Mean motion: 14.21343722 rev/day Decay rate: 3.51e-06 rev/day^2 Epoch rev: 54319 Checksum: 292
Satellite: CO-57 Catalog number: 27848 Epoch time: 13353.95208350 Element set: 753 Inclination: 098.7096 deg RA of node: 359.9339 deg Eccentricity: 0.0010607 Arg of perigee: 081.9209 deg Mean anomaly: 338.1850 deg Mean motion: 14.21052372 rev/day Decay rate: 3.12e-06 rev/day^2 Epoch rev: 54304 Checksum: 313
Satellite: AO-51 Catalog number: 28375 Epoch time: 13352.86024402 Element set: 727 Inclination: 098.2287 deg RA of node: 301.1566 deg Eccentricity: 0.0083648 Arg of perigee: 176.7006 deg Mean anomaly: 241.0877 deg Mean motion: 14.41232530 rev/day Decay rate: 2.70e-06 rev/day^2 Epoch rev: 49793 Checksum: 306
Satellite: CP3 Catalog number: 31129 Epoch time: 13354.50608458 Element set: 628 Inclination: 097.9154 deg RA of node: 336.8254 deg Eccentricity: 0.0099038 Arg of perigee: 206.6795 deg Mean anomaly: 269.8338 deg Mean motion: 14.54089717 rev/day Decay rate: 1.058e-05 rev/day^2 Epoch rev: 35406 Checksum: 342
Satellite: CO-65 Catalog number: 32785 Epoch time: 13354.12440385 Element set: 819 Inclination: 097.7265 deg RA of node: 046.1488 deg Eccentricity: 0.0015251 Arg of perigee: 061.3462 deg Mean anomaly: 025.2752 deg Mean motion: 14.84473088 rev/day Decay rate: 2.021e-05 rev/day^2 Epoch rev: 30545 Checksum: 301
Satellite: PRISM Catalog number: 33493 Epoch time: 13354.79910328 Element set: 474 Inclination: 098.2329 deg RA of node: 158.2847 deg Eccentricity: 0.0016683 Arg of perigee: 307.4772 deg Mean anomaly: 052.4907 deg Mean motion: 14.87362524 rev/day Decay rate: 6.847e-05 rev/day^2 Epoch rev: 26564 Checksum: 339
Satellite: SOHLA-1 Catalog number: 33496 Epoch time: 13354.12572023 Element set: 227 Inclination: 098.1513 deg RA of node: 109.8879 deg Eccentricity: 0.0007763 Arg of perigee: 094.2520 deg Mean anomaly: 031.0505 deg Mean motion: 14.70505728 rev/day Decay rate: 7.01e-06 rev/day^2 Epoch rev: 26319 Checksum: 281
Satellite: TISAT-1 Catalog number: 36799 Epoch time: 13354.92653551 Element set: 738 Inclination: 098.0265 deg RA of node: 080.7380 deg Eccentricity: 0.0014054 Arg of perigee: 176.9867 deg Mean anomaly: 183.1381 deg Mean motion: 14.84267210 rev/day Decay rate: 5.078e-05 rev/day^2 Epoch rev: 18626 Checksum: 331
Satellite: STUDSAT Catalog number: 36801 Epoch time: 13353.17376083 Element set: 735 Inclination: 098.0398 deg RA of node: 084.0930 deg Eccentricity: 0.0011102 Arg of perigee: 160.9312 deg Mean anomaly: 235.7625 deg Mean motion: 14.91409982 rev/day Decay rate: 1.2109e-04 rev/day^2 Epoch rev: 18625 Checksum: 290
Satellite: ALMASAT-1 Catalog number: 38078 Epoch time: 13354.59446105 Element set: 880 Inclination: 069.4766 deg RA of node: 125.2475 deg Eccentricity: 0.0656232 Arg of perigee: 266.6593 deg Mean anomaly: 085.9270 deg Mean motion: 14.35423161 rev/day Decay rate: 3.3611e-04 rev/day^2 Epoch rev: 9588 Checksum: 331
Satellite: XATCOBEO Catalog number: 38082 Epoch time: 13354.89416875 Element set: 781 Inclination: 069.4682 deg RA of node: 072.3733 deg Eccentricity: 0.0453044 Arg of perigee: 238.1356 deg Mean anomaly: 117.4967 deg Mean motion: 14.87722654 rev/day Decay rate: 1.55693e-03 rev/day^2 Epoch rev: 9735 Checksum: 349
Satellite: CUBEBUG-1 Catalog number: 39153 Epoch time: 13354.82108618 Element set: 686 Inclination: 098.0599 deg RA of node: 070.4541 deg Eccentricity: 0.0017424 Arg of perigee: 201.0797 deg Mean anomaly: 158.9673 deg Mean motion: 14.76939223 rev/day Decay rate: 2.750e-05 rev/day^2 Epoch rev: 3522 Checksum: 317
Satellite: ESTCUBE-1 Catalog number: 39161 Epoch time: 13354.84840566 Element set: 659 Inclination: 098.1135 deg RA of node: 072.0155 deg Eccentricity: 0.0009080 Arg of perigee: 237.3167 deg Mean anomaly: 122.7156 deg Mean motion: 14.69387220 rev/day Decay rate: 2.285e-05 rev/day^2 Epoch rev: 3340 Checksum: 293
/EX SB KEPS @ AMSAT $ORB13354.W Orbital Elements 13354.WEATHER
HR AMSAT ORBITAL ELEMENTS FOR WEATHER SATELLITES FROM WA5QGD FORT WORTH,TX December 20, 2013 BID: ORB13354.W TO ALL RADIO AMATEURS BT
Satellite: NOAA-10 Catalog number: 16969 Epoch time: 13354.56209757 Element set: 607 Inclination: 098.5297 deg RA of node: 018.1819 deg Eccentricity: 0.0013007 Arg of perigee: 063.3847 deg Mean anomaly: 098.7324 deg Mean motion: 14.27696695 rev/day Decay rate: 1.15e-06 rev/day^2 Epoch rev: 41853 Checksum: 338
Satellite: NOAA-11 Catalog number: 19531 Epoch time: 13354.19342664 Element set: 631 Inclination: 098.6977 deg RA of node: 072.7275 deg Eccentricity: 0.0012271 Arg of perigee: 091.8552 deg Mean anomaly: 268.4027 deg Mean motion: 14.15046385 rev/day Decay rate: 8.0e-07 rev/day^2 Epoch rev: 30243 Checksum: 298
